Home   Weather   Wittmund   Past weeks

Flag for Germany Past Weather in Wittmund, Lower Saxony, Germany — Yesterday and Last 2 Weeks

Now
21 °F

Fog.


Feels Like: 21 °F
Forecast: 25 / 34 °F
Wind: No wind

Location: Wittmundhaven

Current Time: Jan 16, 2017 at 11:23:21 pm

Latest Report: Jan 16, 2017 at 10:20 pm


Visibility: N/A

Pressure: 30.51 "Hg

Humidity: 100%

Dew Point: 21 °F

Location of WittmundLocation

Past Weather in Wittmund — Graph

°F

Wittmund Temperature Yesterday

Maximum temperature yesterday: 39 °F (at 12:53 pm)
Minimum temperature yesterday: 28 °F (at 11:20 pm)
Average temperature yesterday: 34 °F

High & Low Weather Summary for the Past Weeks

 TemperatureHumidityPressure
High46 °F (Jan 3, 10:49 pm)100% (Jan 1, 10:20 pm)30.74 "Hg (Jan 1, 10:20 pm)
Low18 °F (Jan 6, 4:20 am)59% (Jan 5, 3:20 pm)29.12 "Hg (Jan 13, 2:20 am)
Average36 °F87%29.96 "Hg
* Reported Jan 1 9:20 pm — Jan 16 9:20 pm, Wittmund, Weather by CustomWeather, © 2017

Note: Actual official high and low records may vary slightly from our data, if they occured in-between our weather recording intervals... More about our weather records

Advertising

Wittmund Weather History for the Previous 24 Hours

Scroll right to see more
 ConditionsComfort  
Time TempWeatherWind HumidityBarometerVisibility
9:20 pm
Mon, Jan 16
21 °FFog.1 mph100%30.48 "HgN/A
8:20 pm23 °FCold.3 mph100%30.48 "HgN/A
7:20 pm25 °FCold.2 mph93%30.45 "HgN/A
6:20 pm27 °FChilly.3 mph93%30.42 "HgN/A
5:20 pm28 °FChilly.1 mph93%30.42 "HgN/A
4:20 pm32 °FChilly.3 mph80%30.42 "HgN/A
3:20 pm34 °FPassing clouds.3 mph81%30.39 "HgN/A
2:20 pm34 °FPassing clouds.3 mph81%30.39 "HgN/A
1:20 pm34 °FChilly.3 mph81%30.39 "HgN/A
12:20 pm34 °FChilly.2 mph81%30.36 "HgN/A
11:20 am30 °FPassing clouds.No wind93%30.36 "HgN/A
10:20 am25 °FPassing clouds.1 mph93%30.36 "HgN/A
9:20 am21 °FPassing clouds.1 mph93%30.33 "HgN/A
8:20 am21 °FFog.No wind93%30.33 "HgN/A
7:20 am21 °FFog.1 mph100%30.30 "HgN/A
6:20 am21 °FFog.1 mph93%30.27 "HgN/A
5:20 am21 °FFog.1 mph100%30.27 "HgN/A
5:02 am23 °FFog.1 mph93%30.27 "HgN/A
4:20 am23 °FCold.1 mph93%30.24 "Hg0 mi
3:20 am23 °FCold.1 mph100%30.24 "Hg2 mi
2:20 am23 °FCold.1 mph100%30.24 "Hg0 mi
1:20 am25 °FCold.2 mph100%30.21 "Hg1 mi
12:20 am27 °FChilly.1 mph100%30.21 "Hg0 mi
11:20 pm
Sun, Jan 15
28 °FChilly.5 mph93%30.21 "Hg0 mi
Weather by CustomWeather, © 2017

See weather overviewHow to use our weather pages